Weather History for KFZY - October, 2013

Change the Weather History Date:

Friday, October 18, 2013

  Actual Average (KSYR) Record (KSYR)
Temperature  
Mean Temperature 52 °F 50 °F  
Max Temperature 60 °F 59 °F 83 °F (1947)
Min Temperature 44 °F 40 °F 26 °F (1939)
Degree Days  
Heating Degree Days 14 15  
Month to date heating degree days 225  
Since 1 July heating degree days 392  
Cooling Degree Days 0 0  
Month to date cooling degree days 0  
Year to date cooling degree days 565  
Growing Degree Days 2 (Base 50)    
Moisture  
Dew Point 45 °F    
Average Humidity 77    
Maximum Humidity 94    
Minimum Humidity 49    
Precipitation  
Precipitation 0.02 in 0.10 in 1.27 in (1928)
Month to date precipitation 2.01  
Year to date precipitation 30.29  
Snow  
Snow 0.00 in 0.10 in T in (1976)
Month to date snowfall 0.1  
Since 1 July snowfall 0.1  
Since 1 September snowfall 0.1  
Snow Depth -    
Sea Level Pressure  
Sea Level Pressure 29.81 in    
Wind  
Wind Speed 8 mph (SW)    
Max Wind Speed 18 mph    
Max Gust Speed 25 mph    
Visibility 10 miles    
Events Rain    
T = Trace of Precipitation, MM = Missing Value Source: NWS Daily Summary

Daily Weather History Graph

Daily Weather History Graph

Search for Another Location

Airport or City:

Trip Planner

Search our weather history database for the weather conditions in past years. The results will help you decide how hot, cold, wet, or windy it might be!

Date:

Astronomy

Oct. 18, 2013 Rise Set
Actual Time 7:23 AM EDT 6:17 PM EDT
Civil Twilight 6:54 AM EDT 6:46 PM EDT
Nautical Twilight 6:21 AM EDT 7:19 PM EDT
Astronomical Twilight 5:48 AM EDT 7:52 PM EDT
Moon 6:05 PM EDT (10/18) 6:56 AM EDT (10/18)
Length of Visible Light 11h 51m
Length of Day
10h 53m
Full, 100% of the Moon is Illuminated
Oct 18
Full
Oct 18
Full
Oct 26
Last Quarter
Nov 3
New
Nov 10
First Quarter

Hourly Weather History & Observations

Time (EDT) Temp. Windchill Dew Point Humidity Pressure Visibility Wind Dir Wind Speed Gust Speed Precip Events Conditions
12:02 AM 53.6 °F - 51.8 °F 94% 29.69 in 10.0 mi West 4.6 mph - N/A   Overcast
12:32 AM 53.6 °F - 50.0 °F 88% 29.69 in 8.0 mi South 3.5 mph - N/A   Overcast
12:54 AM 53.1 °F - 51.1 °F 93% 29.70 in 10.0 mi SSW 4.6 mph - N/A   Overcast
1:54 AM 53.1 °F - 51.1 °F 93% 29.71 in 8.0 mi SSW 9.2 mph - 0.01 in Rain Light Rain
2:03 AM 53.6 °F - 51.8 °F 94% 29.71 in 5.0 mi SW 9.2 mph - 0.00 in Rain Light Rain
2:34 AM 53.6 °F - 50.0 °F 88% 29.72 in 10.0 mi WSW 10.4 mph - 0.01 in Rain Light Rain
2:54 AM 53.1 °F - 50.0 °F 89% 29.72 in 10.0 mi WSW 8.1 mph - 0.01 in   Overcast
3:54 AM 52.0 °F - 48.0 °F 86% 29.73 in 10.0 mi SW 8.1 mph - N/A   Mostly Cloudy
4:54 AM 51.1 °F - 46.9 °F 86% 29.73 in 10.0 mi SW 8.1 mph - N/A   Scattered Clouds
5:54 AM 51.1 °F - 46.0 °F 83% 29.74 in 10.0 mi SW 11.5 mph - N/A   Partly Cloudy
6:54 AM 51.1 °F - 46.9 °F 86% 29.77 in 10.0 mi SW 11.5 mph 18.4 mph N/A   Overcast
7:54 AM 51.1 °F - 46.9 °F 86% 29.78 in 10.0 mi SW 10.4 mph - N/A   Overcast
8:54 AM 53.1 °F - 46.9 °F 80% 29.81 in 10.0 mi SW 10.4 mph 19.6 mph N/A   Mostly Cloudy
9:33 AM 53.6 °F - 46.4 °F 77% 29.82 in 10.0 mi WSW 11.5 mph 19.6 mph N/A   Mostly Cloudy
9:54 AM 54.0 °F - 46.9 °F 77% 29.83 in 10.0 mi WSW 10.4 mph 20.7 mph N/A   Overcast
10:54 AM 57.0 °F - 46.9 °F 69% 29.84 in 10.0 mi WSW 16.1 mph - N/A   Mostly Cloudy
11:03 AM 57.2 °F - 46.4 °F 67% 29.84 in 10.0 mi WSW 18.4 mph 24.2 mph N/A   Mostly Cloudy
11:54 AM 59.0 °F - 44.1 °F 58% 29.86 in 10.0 mi West 17.3 mph 24.2 mph N/A   Mostly Cloudy
12:54 PM 57.9 °F - 44.1 °F 60% 29.86 in 10.0 mi West 16.1 mph 25.3 mph N/A   Partly Cloudy
1:54 PM 57.9 °F - 39.0 °F 49% 29.87 in 10.0 mi West 11.5 mph 23.0 mph N/A   Clear
2:54 PM 57.9 °F - 39.0 °F 49% 29.88 in 10.0 mi WNW 15.0 mph 21.9 mph N/A   Scattered Clouds
3:54 PM 57.9 °F - 39.9 °F 51% 29.88 in 10.0 mi West 9.2 mph - N/A   Scattered Clouds
4:54 PM 55.9 °F - 39.9 °F 55% 29.88 in 10.0 mi West 11.5 mph - N/A   Overcast
5:54 PM 55.0 °F - 41.0 °F 59% 29.89 in 10.0 mi West 5.8 mph - N/A   Clear
6:54 PM 52.0 °F - 41.0 °F 66% 29.90 in 10.0 mi South 4.6 mph - N/A   Clear
7:54 PM 48.0 °F - 42.1 °F 80% 29.90 in 10.0 mi South 4.6 mph - N/A   Clear
8:54 PM 45.0 °F - 41.0 °F 86% 29.91 in 10.0 mi Calm Calm - N/A   Clear
9:54 PM 44.1 °F 40.8 °F 39.9 °F 85% 29.92 in 10.0 mi South 5.8 mph - N/A   Clear
10:54 PM 46.0 °F 44.8 °F 41.0 °F 83% 29.92 in 10.0 mi South 3.5 mph - N/A   Mostly Cloudy
11:54 PM 46.9 °F - 42.1 °F 83% 29.91 in 10.0 mi Calm Calm - N/A   Scattered Clouds